�������l�o���
Date,Time,MP-1(��Sv/h),MP-2(��Sv/h),MP-3(��Sv/h),MP-4(��Sv/h),MP-5(��Sv/h),MP-6(��Sv/h),MP-7(��Sv/h),MP-8(��Sv/h),����,����(m/s),���J
2020/05/09,00:00,0.714,1.034,0.676,1.251,0.902,0.405,0.706,0.665,��쐼,6.3,��
2020/05/09,00:10,0.713,1.035,0.676,1.254,0.900,0.405,0.705,0.664,��,5.1,��
2020/05/09,00:20,0.714,1.035,0.676,1.253,0.902,0.405,0.705,0.664,��쐼,4.4,��
2020/05/09,00:30,0.714,1.035,0.677,1.250,0.900,0.404,0.705,0.663,��쐼,4.9,��
2020/05/09,00:40,0.713,1.036,0.676,1.251,0.899,0.405,0.704,0.664,��,4.9,��
2020/05/09,00:50,0.713,1.034,0.676,1.250,0.900,0.404,0.704,0.663,��,6.1,��
2020/05/09,01:00,0.713,1.036,0.676,1.251,0.901,0.403,0.705,0.663,��,6.2,��
2020/05/09,01:10,0.714,1.038,0.675,1.253,0.900,0.403,0.704,0.664,��쐼,6.9,��
2020/05/09,01:20,0.711,1.035,0.675,1.252,0.901,0.404,0.704,0.666,��,6.1,��
2020/05/09,01:30,0.713,1.035,0.675,1.254,0.897,0.403,0.704,0.664,��쐼,5.9,��
2020/05/09,01:40,0.714,1.036,0.673,1.252,0.902,0.404,0.704,0.662,��쐼,4.9,��
2020/05/09,01:50,0.711,1.036,0.676,1.252,0.900,0.405,0.705,0.665,��,5.5,��
2020/05/09,02:00,0.714,1.035,0.675,1.251,0.901,0.404,0.705,0.665,��쐼,5.3,��
2020/05/09,02:10,0.713,1.036,0.675,1.252,0.901,0.403,0.704,0.663,��,5.7,��
2020/05/09,02:20,0.714,1.035,0.675,1.254,0.900,0.404,0.704,0.663,��쐼,5.4,��
2020/05/09,02:30,0.715,1.036,0.676,1.253,0.899,0.404,0.704,0.663,��쐼,5.7,��
2020/05/09,02:40,0.713,1.033,0.675,1.252,0.900,0.404,0.702,0.663,�쐼,6.2,��
2020/05/09,02:50,0.713,1.039,0.676,1.254,0.899,0.404,0.704,0.664,�쐼,6.1,��
2020/05/09,03:00,0.714,1.034,0.675,1.252,0.899,0.404,0.703,0.665,��쐼,7.7,��
2020/05/09,03:10,0.712,1.035,0.675,1.252,0.899,0.404,0.706,0.665,�쐼,6.5,��
2020/05/09,03:20,0.711,1.033,0.674,1.253,0.900,0.403,0.705,0.664,��쐼,6.0,��
2020/05/09,03:30,0.715,1.036,0.676,1.253,0.899,0.404,0.706,0.664,��쐼,6.6,��
2020/05/09,03:40,0.713,1.036,0.676,1.253,0.901,0.405,0.705,0.663,��쐼,6.7,��
2020/05/09,03:50,0.714,1.035,0.677,1.253,0.899,0.403,0.707,0.666,��쐼,6.9,��
2020/05/09,04:00,0.715,1.034,0.677,1.254,0.900,0.403,0.706,0.663,��쐼,5.7,��
2020/05/09,04:10,0.713,1.034,0.674,1.252,0.899,0.404,0.705,0.665,��쐼,4.7,��
2020/05/09,04:20,0.713,1.034,0.675,1.251,0.899,0.404,0.705,0.664,��쐼,5.6,��
2020/05/09,04:30,0.714,1.036,0.675,1.252,0.900,0.404,0.706,0.664,��쐼,6.4,��
2020/05/09,04:40,0.714,1.035,0.677,1.252,0.901,0.405,0.706,0.663,��,6.0,��
2020/05/09,04:50,0.714,1.033,0.678,1.253,0.898,0.403,0.706,0.663,��,5.7,��
2020/05/09,05:00,0.715,1.033,0.674,1.253,0.900,0.403,0.704,0.664,��,5.3,��
2020/05/09,05:10,0.714,1.036,0.676,1.252,0.901,0.405,0.704,0.665,��쐼,5.1,��
2020/05/09,05:20,0.712,1.034,0.675,1.254,0.900,0.405,0.703,0.663,��쐼,5.1,��
2020/05/09,05:30,0.712,1.033,0.677,1.252,0.901,0.404,0.706,0.664,��쐼,5.5,��
2020/05/09,05:40,0.712,1.034,0.676,1.254,0.897,0.403,0.704,0.664,��쐼,6.3,��
2020/05/09,05:50,0.713,1.034,0.675,1.253,0.899,0.404,0.705,0.663,��쐼,6.4,��
2020/05/09,06:00,0.713,1.035,0.676,1.255,0.899,0.403,0.706,0.663,��쐼,5.5,��
2020/05/09,06:10,0.711,1.035,0.675,1.252,0.899,0.403,0.705,0.665,��쐼,5.4,��
2020/05/09,06:20,0.713,1.035,0.676,1.255,0.899,0.401,0.705,0.665,��쐼,5.2,��
2020/05/09,06:30,0.713,1.035,0.678,1.253,0.898,0.403,0.706,0.663,��쐼,3.9,��
2020/05/09,06:40,0.715,1.036,0.675,1.253,0.900,0.404,0.704,0.664,��,3.1,��
2020/05/09,06:50,0.713,1.034,0.677,1.252,0.901,0.405,0.706,0.666,��쐼,1.9,��
2020/05/09,07:00,0.715,1.035,0.676,1.255,0.898,0.404,0.706,0.665,��쐼,1.5,��
2020/05/09,07:10,0.713,1.035,0.676,1.256,0.900,0.403,0.705,0.666,��쐼,1.5,��
2020/05/09,07:20,0.714,1.036,0.678,1.254,0.900,0.402,0.706,0.666,��쐼,1.7,��
2020/05/09,07:30,0.715,1.033,0.678,1.253,0.902,0.402,0.706,0.664,��쐼,1.5,��
2020/05/09,07:40,0.715,1.032,0.678,1.254,0.903,0.402,0.704,0.665,���쐼,1.2,��
2020/05/09,07:50,0.715,1.033,0.675,1.253,0.902,0.403,0.704,0.665,-,CALM,��
2020/05/09,08:00,0.716,1.032,0.679,1.255,0.900,0.401,0.704,0.664,�쐼,0.6,��
2020/05/09,08:10,0.716,1.032,0.678,1.255,0.900,0.402,0.705,0.664,��쓌,1.2,��
2020/05/09,08:20,0.715,1.030,0.676,1.256,0.901,0.402,0.704,0.663,���쐼,0.9,��
2020/05/09,08:30,0.716,1.035,0.676,1.255,0.899,0.403,0.704,0.663,��쓌,1.4,��
2020/05/09,08:40,0.713,1.031,0.677,1.252,0.897,0.403,0.705,0.663,��쓌,1.9,��
2020/05/09,08:50,0.713,1.031,0.676,1.253,0.899,0.403,0.703,0.661,��쓌,1.9,��
2020/05/09,09:00,0.713,1.032,0.673,1.254,0.899,0.404,0.704,0.662,��쓌,1.9,��
2020/05/09,09:10,0.713,1.031,0.675,1.254,0.899,0.402,0.706,0.662,�쓌,2.8,��
2020/05/09,09:20,0.714,1.031,0.675,1.256,0.899,0.404,0.703,0.662,��쓌,5.0,��
2020/05/09,09:30,0.712,1.031,0.674,1.255,0.898,0.403,0.703,0.662,��쓌,5.6,��
2020/05/09,09:40,0.713,1.031,0.674,1.254,0.899,0.403,0.704,0.663,��쓌,6.7,��
2020/05/09,09:50,0.712,1.029,0.673,1.254,0.898,0.404,0.705,0.661,��쓌,6.8,��
2020/05/09,10:00,0.715,1.029,0.676,1.253,0.899,0.404,0.703,0.661,��,6.3,��
2020/05/09,10:10,0.712,1.031,0.677,1.253,0.901,0.403,0.704,0.664,��쓌,6.8,��
2020/05/09,10:20,0.714,1.031,0.675,1.256,0.899,0.402,0.706,0.663,��,7.5,��
2020/05/09,10:30,0.713,1.033,0.676,1.256,0.899,0.403,0.705,0.661,��,5.5,��
2020/05/09,10:40,0.714,1.032,0.675,1.256,0.902,0.402,0.705,0.664,��,5.6,��
2020/05/09,10:50,0.713,1.032,0.676,1.257,0.900,0.404,0.707,0.663,��,7.7,��
2020/05/09,11:00,0.716,1.033,0.675,1.253,0.903,0.404,0.704,0.661,��,6.5,��
2020/05/09,11:10,0.715,1.035,0.677,1.254,0.900,0.402,0.705,0.662,��,6.1,��
2020/05/09,11:20,0.714,1.033,0.676,1.254,0.901,0.402,0.705,0.662,��쓌,6.0,��
2020/05/09,11:30,0.715,1.033,0.676,1.255,0.901,0.404,0.705,0.662,��쓌,10.0,��
2020/05/09,11:40,0.716,1.034,0.676,1.255,0.902,0.403,0.705,0.664,��,8.7,��
2020/05/09,11:50,0.714,1.034,0.676,1.253,0.901,0.404,0.705,0.664,��,7.2,��
2020/05/09,12:00,0.714,1.036,0.677,1.253,0.902,0.402,0.705,0.664,��,6.6,��
2020/05/09,12:10,0.715,1.032,0.677,1.256,0.899,0.405,0.706,0.663,��,4.6,��
2020/05/09,12:20,0.716,1.035,0.676,1.255,0.902,0.404,0.705,0.662,��,4.8,��
2020/05/09,12:30,0.714,1.036,0.675,1.255,0.901,0.405,0.707,0.663,��,5.7,��
2020/05/09,12:40,0.716,1.035,0.677,1.255,0.902,0.404,0.706,0.665,��,5.8,��
2020/05/09,12:50,0.715,1.033,0.677,1.255,0.901,0.406,0.705,0.663,��,7.8,��
2020/05/09,13:00,0.716,1.036,0.677,1.253,0.902,0.405,0.708,0.663,��,8.1,��
2020/05/09,13:10,0.715,1.034,0.678,1.252,0.902,0.405,0.707,0.663,��쓌,8.0,��
2020/05/09,13:20,0.713,1.033,0.676,1.255,0.901,0.406,0.706,0.664,��,7.3,��
2020/05/09,13:30,0.716,1.034,0.676,1.253,0.901,0.403,0.707,0.661,��,7.0,��
2020/05/09,13:40,0.715,1.033,0.675,1.255,0.902,0.404,0.706,0.662,��,6.3,��
2020/05/09,13:50,0.715,1.034,0.677,1.252,0.900,0.405,0.704,0.662,��,5.9,��
2020/05/09,14:00,0.716,1.033,0.676,1.253,0.900,0.405,0.707,0.663,��쓌,6.4,��
2020/05/09,14:10,0.713,1.032,0.677,1.254,0.900,0.404,0.704,0.662,��,7.3,��
2020/05/09,14:20,0.717,1.034,0.677,1.254,0.904,0.405,0.705,0.663,��,7.9,��
2020/05/09,14:30,0.715,1.035,0.675,1.257,0.902,0.404,0.705,0.663,��,8.4,��
2020/05/09,14:40,0.715,1.033,0.677,1.257,0.902,0.404,0.704,0.661,��,8.4,��
2020/05/09,14:50,0.715,1.033,0.676,1.258,0.901,0.405,0.706,0.664,��,8.5,��
2020/05/09,15:00,0.716,1.034,0.675,1.257,0.901,0.403,0.705,0.662,��,8.3,��
2020/05/09,15:10,0.714,1.036,0.678,1.257,0.901,0.404,0.704,0.663,��,7.6,��
2020/05/09,15:20,0.714,1.033,0.675,1.257,0.902,0.404,0.705,0.663,��,9.9,��
2020/05/09,15:30,0.713,1.035,0.677,1.255,0.901,0.404,0.706,0.663,��,9.2,��
2020/05/09,15:40,0.716,1.035,0.676,1.256,0.902,0.404,0.707,0.662,��,8.6,��
2020/05/09,15:50,0.713,1.033,0.677,1.257,0.899,0.404,0.705,0.663,��,7.6,��
2020/05/09,16:00,0.714,1.033,0.677,1.255,0.899,0.403,0.706,0.665,��,8.6,��
2020/05/09,16:10,0.714,1.036,0.676,1.258,0.901,0.404,0.707,0.664,��,8.6,��
2020/05/09,16:20,0.715,1.036,0.678,1.259,0.900,0.404,0.705,0.664,��,8.7,��
2020/05/09,16:30,0.714,1.036,0.678,1.258,0.902,0.405,0.702,0.666,��,9.2,��
2020/05/09,16:40,0.714,1.037,0.677,1.257,0.900,0.403,0.704,0.665,��,8.0,��
2020/05/09,16:50,0.713,1.037,0.678,1.258,0.900,0.403,0.707,0.663,��,7.1,��
2020/05/09,17:00,0.715,1.036,0.677,1.259,0.900,0.403,0.705,0.664,��,8.2,��
2020/05/09,17:10,0.715,1.035,0.677,1.258,0.900,0.404,0.706,0.664,��쐼,7.3,��
2020/05/09,17:20,0.715,1.036,0.680,1.257,0.901,0.403,0.704,0.663,��,7.3,��
2020/05/09,17:30,0.717,1.036,0.678,1.258,0.901,0.405,0.704,0.662,��,8.0,��
2020/05/09,17:40,0.716,1.035,0.679,1.257,0.902,0.403,0.704,0.663,��,8.7,��
2020/05/09,17:50,0.715,1.035,0.677,1.255,0.902,0.401,0.704,0.663,��,8.3,��
2020/05/09,18:00,0.714,1.037,0.679,1.259,0.899,0.405,0.706,0.664,��,8.4,��
2020/05/09,18:10,0.715,1.036,0.677,1.258,0.902,0.404,0.703,0.665,��쐼,8.2,��
2020/05/09,18:20,0.715,1.036,0.678,1.256,0.900,0.405,0.704,0.664,��,8.2,��
2020/05/09,18:30,0.715,1.038,0.679,1.257,0.902,0.405,0.703,0.666,��,7.9,��
2020/05/09,18:40,0.715,1.039,0.678,1.256,0.901,0.406,0.704,0.666,��,7.0,��
2020/05/09,18:50,0.717,1.040,0.680,1.258,0.901,0.405,0.705,0.664,��,7.4,��
2020/05/09,19:00,0.714,1.039,0.679,1.257,0.902,0.405,0.706,0.665,��,7.1,��
2020/05/09,19:10,0.714,1.039,0.679,1.257,0.900,0.405,0.704,0.666,��,7.8,��
2020/05/09,19:20,0.714,1.037,0.679,1.258,0.901,0.405,0.705,0.666,��,7.7,��
2020/05/09,19:30,0.714,1.036,0.679,1.260,0.900,0.406,0.706,0.665,��,6.9,��
2020/05/09,19:40,0.716,1.038,0.678,1.258,0.900,0.404,0.704,0.667,��,6.8,��
2020/05/09,19:50,0.715,1.035,0.678,1.256,0.901,0.404,0.706,0.665,��,7.3,��
2020/05/09,20:00,0.716,1.039,0.679,1.255,0.901,0.404,0.707,0.667,��,7.2,��
2020/05/09,20:10,0.716,1.039,0.678,1.259,0.900,0.405,0.706,0.664,��,7.2,��
2020/05/09,20:20,0.716,1.040,0.679,1.256,0.901,0.405,0.706,0.667,��,6.3,��
2020/05/09,20:30,0.717,1.038,0.677,1.258,0.900,0.405,0.706,0.666,��,6.2,��
2020/05/09,20:40,0.717,1.038,0.678,1.256,0.902,0.405,0.707,0.664,��,6.3,��
2020/05/09,20:50,0.715,1.039,0.677,1.258,0.903,0.405,0.705,0.664,��,5.7,��
2020/05/09,21:00,0.715,1.039,0.677,1.258,0.901,0.405,0.705,0.668,��,6.8,��
2020/05/09,21:10,0.719,1.038,0.677,1.256,0.900,0.406,0.705,0.665,��,6.6,��
2020/05/09,21:20,0.717,1.037,0.678,1.259,0.903,0.405,0.706,0.667,��,7.4,��
2020/05/09,21:30,0.717,1.040,0.677,1.258,0.903,0.405,0.706,0.664,��,7.0,��
2020/05/09,21:40,0.716,1.039,0.679,1.257,0.902,0.405,0.705,0.667,��,6.1,��
2020/05/09,21:50,0.719,1.038,0.677,1.257,0.902,0.405,0.706,0.666,��,6.1,��
2020/05/09,22:00,0.717,1.037,0.677,1.257,0.903,0.406,0.705,0.665,��,6.5,�L
2020/05/09,22:10,0.715,1.036,0.679,1.258,0.902,0.406,0.707,0.667,��,6.2,�L
2020/05/09,22:20,0.716,1.036,0.678,1.257,0.903,0.405,0.706,0.664,��,6.6,�L
2020/05/09,22:30,0.717,1.041,0.678,1.257,0.901,0.404,0.705,0.667,��,6.9,�L
2020/05/09,22:40,0.717,1.039,0.679,1.259,0.901,0.404,0.705,0.666,��,6.3,�L
2020/05/09,22:50,0.715,1.036,0.679,1.258,0.902,0.406,0.705,0.666,��,6.7,�L
2020/05/09,23:00,0.716,1.037,0.679,1.258,0.900,0.405,0.705,0.665,��,6.5,�L
2020/05/09,23:10,0.718,1.036,0.680,1.258,0.900,0.406,0.705,0.666,��,6.0,�L
2020/05/09,23:20,0.716,1.032,0.678,1.258,0.899,0.406,0.704,0.665,��,6.2,�L
2020/05/09,23:30,0.715,1.036,0.679,1.256,0.897,0.408,0.704,0.664,��,6.2,�L
2020/05/09,23:40,0.715,1.028,0.678,1.256,0.894,0.408,0.703,0.663,��,6.9,�L
2020/05/09,23:50,0.715,1.028,0.678,1.250,0.893,0.409,0.703,0.662,��,7.0,�L
